Location: Newark
(33.6333°S, 78.8500°W)
Time: 14:54:19
(UTC+00:00)

Tiros 1 despin weight - Pass Details

Date: 25 September 2019
Orbit: 593 x 643 km, 48.2° (Epoch: 20 October)

Event Time Altitude Azimuth Distance (km) Brightness Sun altitude
Rises 08:04:37 0° 226° (SW) 2,932 - -36.0°
Reaches altitude 10° 08:07:30 10° 208° (SSW) 2,031 - -35.5°
Maximum altitude 08:10:57 20° 161° (SSE) 1,492 - -34.9°
Exits shadow 08:11:32 19° 150° (SSE) 1,512 ? -34.7°
Drops below altitude 10° 08:14:24 10° 113° (ESE) 2,042 ? -34.2°
Sets 08:17:18 0° 96° (E) 2,952 ? -33.7°
